Location: La Madeleine
(43.5742°N, 5.4332°E)
Time: 00:03:58
(UTC+00:00)

Daily predictions for brighter satellites

Satellite Brightness Start Highest point End
(mag) Time Altitude Azimuth Time Altitude Azimuth Time Altitude Azimuth
USA 215 4.4 03:15:10 10° E 03:19:41 38° ENE 03:19:41 38° ENE
Cosmos 2297 Rocket 2.9 04:09:44 46° SE 04:09:44 46° SE 04:13:39 10° SSE
BREEZE-M DEB (TANK) 4.3 04:07:50 52° WNW 04:11:08 80° SW 04:16:12 10° SE
Cosmos 2227 Rocket 2.4 04:20:52 61° SSE 04:20:52 61° SSE 04:25:27 10° SSE
Cosmos 44 Rocket 4.3 04:26:50 37° NNE 04:27:22 38° NE 04:31:46 10° ESE
Cosmos 2074 Rocket 3.8 04:31:13 32° N 04:34:19 84° W 04:40:32 10° S
Cosmos 1656 3.8 04:36:45 56° N 04:36:45 56° N 04:41:11 10° NNE
COSMOS 2455 4.4 04:32:49 10° S 04:38:07 34° ESE 04:43:26 10° NE
Cosmos 2369 3.7 04:39:29 25° SSW 04:42:59 79° ESE 04:48:45 10° NNE
SL-4 R/B 3.5 04:45:25 26° NE 04:45:25 26° NE 04:47:41 10° E
NOSS 2-2 (C) 4.0 04:44:50 47° ESE 04:44:50 47° ESE 04:48:31 10° NE
NOSS 2-2 (E) 3.3 04:56:05 72° ENE 04:56:05 72° ENE 04:59:48 10° NE
ATLAS 3B R/B 4.2 04:52:25 13° NNW 04:57:14 27° NE 05:02:56 10° E
Cosmos 1626 4.3 05:00:08 16° S 05:00:08 16° S 05:00:56 10° S
COSMO-SKYMED 1 2.4 04:54:37 10° S 04:58:57 80° WSW 04:59:36 64° NNW
CZ-4B R/B 4.3 04:55:45 10° NNE 05:01:06 46° E 05:06:19 10° S
USA 215 3.2 04:57:35 10° SE 05:04:06 70° SW 05:07:03 35° WNW
Lacrosse 5 rocket 3.3 05:05:38 20° N 05:05:38 20° N 05:08:25 10° NNE
NOSS 3-2 (A) 4.3 04:59:34 20° NNW 05:05:13 67° NE 05:13:35 10° SE
Cosmos 1980 Rocket 2.5 05:03:07 10° SSW 05:08:46 68° ESE 05:14:25 10° NNE
STARLINK-26 3.5 05:08:45 56° S 05:09:12 63° SE 05:12:41 10° ENE
Cosmos 2341 Rocket 4.3 05:05:25 10° N 05:11:42 68° E 05:17:53 10° SSE
ALOS 2.1 05:08:28 10° N 05:13:09 76° WNW 05:17:48 10° SSW
FENGYUN 3A 3.5 05:09:18 10° NNE 05:14:43 82° WNW 05:20:07 10° SSW
MOS 1-B 4.2 05:09:37 10° NNE 05:15:26 82° WNW 05:21:14 10° SSW
Cosmos 1697 Rocket 2.7 05:13:30 18° SW 05:17:40 58° WNW 05:23:14 10° NNE
Cosmos 1953 2.2 05:14:44 10° S 05:18:46 86° W 05:22:52 10° N
STARLINK-61 4.1 05:17:37 22° SSW 05:19:57 55° SE 05:23:51 10° ENE
SWAS 4.3 05:18:55 38° NW 05:20:29 73° WSW 05:24:44 10° SSE
CENTAUR R/B 3.8 05:16:53 12° NNW 05:24:13 53° NE 05:32:41 10° ESE
Cosmos 1726 2.7 05:21:27 10° S 05:25:03 57° E 05:28:40 10° NNE
Nadezhda 1 Rocket 4.0 05:20:07 10° SSW 05:25:59 49° WNW 05:31:52 10° N
ATLAS 2AS CENTAUR R/B 3.6 05:22:17 10° SSW 05:30:02 61° ESE 05:37:54 10° NE
STARLINK-28 4.2 05:27:57 13° SSW 05:30:51 46° SE 05:34:17 10° ENE
ADEOS Rocket 3.3 05:26:51 10° SSE 05:32:14 61° ENE 05:37:45 10° N
Abrixas rocket 3.0 05:32:51 31° NNW 05:33:18 33° N 05:36:06 10° ENE
STARLINK-75 4.2 05:32:05 10° SW 05:35:52 52° SE 05:39:40 10° ENE
Cosmos 773 Rocket 4.3 05:31:32 10° SW 05:36:34 43° WNW 05:41:37 10° N
CZ-3 R/B 3.6 05:23:32 12° WSW 05:36:40 31° SSW 05:42:13 10° SE
SJ-12 4.4 05:33:00 10° N 05:36:43 35° WNW 05:40:26 10° SW
Cosmos 2082 4.3 05:35:56 24° WNW 05:38:33 36° WSW 05:43:41 10° S
Cosmos 1602 Rocket 4.4 05:39:57 27° W 05:40:02 27° W 05:43:40 10° SSW
CZ-4B DEB 4.3 05:34:48 10° N 05:40:14 56° WNW 05:45:36 10° SSW
USA 238 DEB 3.8 05:34:15 15° NW 05:40:27 78° WSW 05:47:53 10° SSE
USA 238 3.8 05:34:21 15° NW 05:40:33 78° WSW 05:47:59 10° SSE
Cosmos 2228 3.0 05:36:41 10° S 05:41:05 90° NW 05:45:31 10° N
STARLINK-58 4.3 05:37:42 10° SW 05:41:35 52° SE 05:45:31 10° ENE
STARLINK-62 4.2 05:39:22 10° SW 05:43:17 55° SE 05:47:15 10° ENE
BREEZE-M DEB (TANK) 4.0 05:31:26 10° WSW 05:45:19 61° NNW 05:49:48 10° ENE
STARLINK-41 4.2 05:42:06 10° SW 05:45:53 54° SE 05:49:42 10° ENE
Cosmos 2218 Rocket 4.2 05:41:03 10° N 05:47:30 78° E 05:53:50 10° SSE
Cosmos 2297 Rocket 3.8 05:51:37 15° WSW 05:51:37 15° WSW 05:54:20 10° SW
Cosmos 1953 Rocket 3.5 05:46:58 10° N 05:51:26 82° W 05:55:49 10° S
Cosmos 923 Rocket 4.0 05:46:42 10° SSW 05:51:57 86° ESE 05:57:16 10° NNE
Okean O Rocket 1.7 05:49:34 10° N 05:53:55 52° WNW 05:58:13 10° SSW
STARLINK 4.0 05:50:35 10° SW 05:54:23 59° SE 05:58:12 10° ENE
Cosmos 2344 3.9 05:47:19 10° WSW 05:54:28 46° NW 06:02:29 10° NNE
Cosmos 2322 Rocket 3.6 05:51:01 10° S 05:56:17 42° ESE 06:01:37 10° NE
SJ-7 4.5 05:52:27 10° N 05:56:30 57° WNW 06:00:35 10° SSW
NOSS 2-2 (D) 3.9 05:54:41 19° W 05:56:43 33° NW 06:00:27 10° NNE
Cosmos 1758 Rocket 3.9 05:52:38 10° NNW 05:56:44 41° W 06:00:51 10° SSW
NOSS 2 (A) 4.4 05:58:11 28° WNW 05:59:01 43° WSW 06:01:16 10° SSE
Helios 1A Rocket 3.1 05:58:54 10° N 06:02:54 51° WNW 06:06:54 10° SSW
Cosmos 2227 Rocket 3.8 06:02:44 13° W 06:03:00 13° W 06:05:27 10° WSW
USA 32 4.1 05:57:56 10° NNW 06:03:02 53° W 06:08:07 10° SSW
Cosmos 1328 3.7 05:59:49 10° NNW 06:03:50 73° W 06:07:46 10° S
STARLINK-34 3.6 06:00:41 10° SW 06:04:42 81° SE 06:08:45 10° ENE
FALCON 9 DEB 2.6 06:03:00 10° SW 06:04:43 45° SE 06:06:30 10° ENE
STARLINK-24 3.6 06:02:57 10° SW 06:06:58 83° SE 06:11:00 10° NE
STARLINK-81 3.7 06:03:48 10° SW 06:07:49 78° SE 06:11:51 10° ENE
Cosmos 44 Rocket 4.2 06:05:35 15° WNW 06:08:45 29° WSW 06:12:50 10° S
STARLINK-54 3.5 06:05:36 10° SW 06:09:37 87° SE 06:13:40 10° NE
STARLINK-77 3.6 06:07:05 10° SW 06:11:07 83° SE 06:15:09 10° NE
Cosmos 2263 Rocket 2.2 06:06:30 10° NNW 06:12:10 89° ENE 06:17:51 10° SSE
STARLINK-25 3.6 06:08:46 10° SW 06:12:47 85° SE 06:16:50 10° NE
SMAP 3.0 06:09:24 10° N 06:14:04 81° WNW 06:18:43 10° SSW
STARLINK-71 3.5 06:10:36 10° SW 06:14:38 85° NNW 06:18:41 10° NE
STARLINK-48 4.4 06:13:02 13° W 06:16:00 31° NNW 06:19:30 10° NE
STARLINK-79 3.5 06:12:02 10° SW 06:16:03 90° WSW 06:20:07 10° NE
Cosmos 2058 Rocket 3.0 06:13:16 10° SSW 06:17:38 64° W 06:22:01 10° N
STARLINK-78 3.5 06:13:44 10° SW 06:17:45 87° NW 06:21:48 10° NE
Cosmos 1959 Rocket 4.5 06:11:56 10° NNW 06:17:58 64° W 06:24:01 10° S
Lacrosse 5 4.0 06:13:45 10° S 06:18:12 31° SE 06:22:40 10° ENE
STARLINK-57 3.5 06:15:29 10° WSW 06:19:31 82° NNW 06:23:33 10° NE
STARLINK-46 3.9 06:18:53 12° W 06:19:56 16° SW 06:21:20 10° S
STARLINK-49 3.5 06:17:01 10° WSW 06:21:02 83° NW 06:25:05 10° NE
STARLINK-27 3.5 06:18:40 10° WSW 06:22:41 81° NW 06:26:44 10° NE
COSMOS 2455 3.2 06:18:10 10° WSW 06:23:53 45° NW 06:29:40 10° NNE
STARLINK-74 3.5 06:20:19 10° WSW 06:24:20 79° NNW 06:28:23 10° NE
SL-4 R/B 1.6 06:21:02 11° WNW 06:24:23 68° SW 06:27:46 10° SE
STARLINK-39 3.5 06:21:59 10° WSW 06:26:00 77° NW 06:30:02 10° NE
Cosmos 2366 rocket 4.1 06:20:20 10° NNW 06:26:33 58° W 06:32:44 10° S
Cosmos 1844 Rocket 4.4 06:21:47 10° N 06:26:38 29° NE 06:31:28 10° ESE
STARLINK 3.5 06:23:38 10° WSW 06:27:38 74° NW 06:31:41 10° NE
STARLINK-69 3.5 06:25:31 10° WSW 06:29:31 68° NNW 06:33:32 10° NE
STARLINK-21 3.5 06:27:00 10° WSW 06:31:00 70° NNW 06:35:02 10° NE
NOSS 3-2 (C) 4.2 06:25:14 10° NW 06:32:47 63° WSW 06:41:07 10° SSE
STARLINK-45 3.6 06:28:55 10° WSW 06:32:54 63° NNW 06:36:54 10° NE
SL-16 R/B 2.2 06:27:39 10° SSW 06:33:19 84° WNW 06:39:02 10° NNE
STARLINK-70 3.6 06:30:27 10° WSW 06:34:27 63° NNW 06:38:27 10° NE
STARLINK-76 3.6 06:31:59 10° WSW 06:35:59 64° NNW 06:40:00 10° NE
STARLINK 3.6 06:33:40 10° WSW 06:37:40 63° NNW 06:41:40 10° NE
YAOGAN 6 2.5 06:34:18 10° NNE 06:37:53 88° WNW 06:41:24 10° SSW
H-2A R/B 3.5 06:34:22 10° N 06:37:53 32° WNW 06:41:22 10° SW
STARLINK-32 3.6 06:35:18 10° WSW 06:39:17 61° NNW 06:43:17 10° NE
CZ-4 R/B 2.5 06:36:35 10° NNE 06:40:44 52° E 06:44:51 10° S
STARLINK-40 3.6 06:36:59 10° WSW 06:40:57 60° NNW 06:44:57 10° NE
Envisat 3.0 06:36:12 10° N 06:41:18 78° WNW 06:46:22 10° SSW
CZ-4B R/B 4.1 06:36:46 10° N 06:41:22 27° WNW 06:45:55 10° WSW
Cosmos 1680 Rocket 3.8 06:37:24 10° SW 06:42:31 46° WNW 06:47:39 10° N
Feng Yun 1-1 Rocket 4.4 06:37:09 10° N 06:43:01 63° WNW 06:48:48 10° SSW
